Weather History for Annette Island, AK

Change the Weather History Date:

Sunday, August 11, 2013

  Actual Average Record
Temperature  
Mean Temperature 61 °F 60 °F  
Max Temperature 69 °F 66 °F 87 °F (1990)
Min Temperature 53 °F 54 °F 46 °F (1964)
Degree Days  
Heating Degree Days 4    
Month to date heating degree days 44 60  
Since 1 June heating degree days 415 564  
Since 1 July heating degree days 195 266  
Cooling Degree Days 0    
Month to date cooling degree days 2  
Year to date cooling degree days 22  
Since 1 June cooling degree days 22  
Growing Degree Days 10 (Base 50)    
Moisture  
Dew Point 55 °F    
Average Humidity 0    
Maximum Humidity 0    
Minimum Humidity 0    
Precipitation  
Precipitation 0.00 in 0.21 in 1.50 in (1969)
Month to date precipitation 0.43 2.02  
Year to date precipitation 47.32 49.97  
Snow  
Snow 0.00 in 0.00 in 0.00 in (2014)
Month to date snowfall 0.0 0.0  
Since 1 June snowfall 0.0 0.0  
Since 1 July snowfall 0.0  
Snow Depth 0.00 in    
Sea Level Pressure  
Sea Level Pressure 30.02 in    
Wind  
Wind Speed 2 mph (SSE)    
Max Wind Speed 7 mph    
Max Gust Speed 9 mph    
Visibility 6 miles    
Events Fog    
T = Trace of Precipitation, MM = Missing Value Source: NWS Daily Summary

Daily Weather History Graph

Daily Weather History Graph

Search for Another Location

Airport:

Trip Planner

Search our weather history database for the weather conditions in past years. The results will help you decide how hot, cold, wet, or windy it might be!

Date:

Astronomy

Aug. 11, 2013 Rise Set
Actual Time 5:13 AM AKDT 8:27 PM AKDT
Civil Twilight 4:30 AM AKDT 9:10 PM AKDT
Nautical Twilight 3:32 AM AKDT 10:07 PM AKDT
Astronomical Twilight 2:07 AM AKDT 11:30 PM AKDT
Moon 11:10 AM AKDT (8/11) 9:42 PM AKDT (8/11)
Length of Visible Light 16h 39m
Length of Day
15h 13m
Waxing Crescent, 23% of the Moon is Illuminated
Aug 11
Waxing Crescent
Aug 14
First Quarter
Aug 20
Full
Aug 28
Last Quarter
Sep 5
New

Hourly Weather History & Observations

Time (AKDT) Temp. Dew Point Humidity Pressure Visibility Wind Dir Wind Speed Gust Speed Precip Events Conditions
12:53 AM 55.0 °F 54.0 °F 96% 30.01 in 9.0 mi Calm Calm - N/A   Clear
1:53 AM 53.1 °F 52.0 °F 96% 30.01 in 10.0 mi Calm Calm - N/A   Clear
2:53 AM 55.0 °F 53.1 °F 93% 30.02 in 10.0 mi Calm Calm - N/A   Clear
3:43 AM 53.6 °F 53.6 °F 100% 30.02 in 5.0 mi SE 5.8 mph - N/A   Scattered Clouds
3:47 AM 53.6 °F 53.6 °F 100% 30.02 in 1.8 mi SSE 4.6 mph - N/A   Mostly Cloudy
3:53 AM 54.0 °F 53.1 °F 97% 30.03 in 1.0 mi SE 4.6 mph - N/A   Mist
4:00 AM 53.6 °F 53.6 °F 100% 30.02 in 0.8 mi SE 4.6 mph - N/A   Mist
4:34 AM 53.6 °F 53.6 °F 100% 30.02 in 0.2 mi Calm Calm - N/A Fog Fog
4:53 AM 53.1 °F 53.1 °F 100% 30.02 in 0.2 mi Calm Calm - N/A Fog Fog
5:53 AM 53.1 °F 53.1 °F 100% 30.03 in 0.2 mi Calm Calm - N/A Fog Fog
6:25 AM 53.6 °F 53.6 °F 100% 30.02 in 1.2 mi Calm Calm - N/A   Overcast
6:39 AM 53.6 °F 53.6 °F 100% 30.02 in 0.5 mi Calm Calm - N/A Fog Fog
6:51 AM 53.6 °F 53.6 °F 100% 30.02 in 0.2 mi Calm Calm - N/A Fog Fog
6:53 AM 54.0 °F 54.0 °F 100% 30.03 in 0.2 mi Calm Calm - N/A Fog Fog
7:53 AM 55.0 °F 55.0 °F 100% 30.03 in 0.2 mi Calm Calm - N/A Fog Fog
8:53 AM 55.9 °F 55.9 °F 100% 30.04 in 0.5 mi Calm Calm - N/A Fog Fog
9:09 AM 55.4 °F 55.4 °F 100% 30.03 in 1.2 mi Calm Calm - N/A   Overcast
9:27 AM 57.2 °F 57.2 °F 100% 30.03 in 2.5 mi Calm Calm - N/A   Overcast
9:34 AM 57.2 °F 55.4 °F 94% 30.03 in 4.0 mi Calm Calm - N/A   Overcast
9:53 AM 57.9 °F 57.0 °F 97% 30.03 in 10.0 mi Calm Calm - N/A   Overcast
10:46 AM 62.6 °F 57.2 °F 82% 30.03 in 10.0 mi Calm Calm - N/A   Mostly Cloudy
10:53 AM 66.0 °F 59.0 °F 78% 30.04 in 10.0 mi Variable 3.5 mph - N/A   Mostly Cloudy
11:53 AM 64.9 °F 57.0 °F 75% 30.03 in 10.0 mi Variable 3.5 mph - N/A   Scattered Clouds
12:05 PM 66.2 °F 57.2 °F 73% 30.03 in 10.0 mi Variable 3.5 mph - N/A   Scattered Clouds
12:53 PM 66.0 °F 57.0 °F 73% 30.03 in 10.0 mi SSW 5.8 mph - N/A   Scattered Clouds
1:53 PM 66.9 °F 55.9 °F 68% 30.02 in 10.0 mi Variable 3.5 mph - N/A   Scattered Clouds
2:53 PM 68.0 °F 55.9 °F 65% 30.01 in 10.0 mi Variable 3.5 mph - N/A   Scattered Clouds
3:53 PM 64.9 °F 54.0 °F 68% 30.01 in 10.0 mi Variable 4.6 mph - N/A   Scattered Clouds
4:53 PM 66.0 °F 55.0 °F 68% 30.00 in 10.0 mi South 4.6 mph - N/A   Scattered Clouds
5:53 PM 66.0 °F 55.0 °F 68% 29.98 in 10.0 mi Variable 3.5 mph - N/A   Scattered Clouds
6:53 PM 60.1 °F 55.0 °F 83% 29.98 in 10.0 mi SE 6.9 mph - N/A   Clear
7:53 PM 57.9 °F 54.0 °F 87% 29.98 in 10.0 mi SSE 4.6 mph - N/A   Clear
8:53 PM 57.9 °F 54.0 °F 87% 29.98 in 10.0 mi SE 4.6 mph - N/A   Clear
9:53 PM 57.0 °F 54.0 °F 89% 29.99 in 10.0 mi SSE 4.6 mph - N/A   Clear
10:53 PM 57.0 °F 54.0 °F 89% 29.99 in 10.0 mi SE 4.6 mph - N/A   Clear
11:53 PM 55.0 °F 53.1 °F 93% 29.99 in 10.0 mi Calm Calm - N/A   Clear